EW4282 Weather Reports


time (UTC)temp
C
wind
direction
speed
KPH
gust
KPH
rain 1hr
cm
rain 24hr
cm
rain mn
cm
humidity
%
barometer
mb
20260510220054 25 293 0.0 3.2 0.00 0.00 0.00 49 1015.3
20260510214551 26 293 0.0 6.4 0.00 0.00 0.00 54 1015.3
20260510213051 26 24 1.6 6.4 0.00 0.00 0.00 50 1015.3
20260510211550 26 22 4.8 8.0 0.00 0.00 0.00 52 1015.4
20260510210047 26 151 0.0 6.4 0.00 0.00 0.00 48 1015.5
20260510204547 26 44 0.0 8.0 0.00 0.00 0.00 49 1015.5
20260510203045 26 79 3.2 11.3 0.00 0.00 0.00 48 1015.7
20260510201543 26 35 1.6 9.7 0.00 0.00 0.00 51 1016.0
20260510200110 26 17 3.2 9.7 0.00 0.00 0.00 53 1016.1
20260510194551 26 5 0.0 9.7 0.00 0.00 0.00 58 1016.2
20260510193044 26 325 1.6 4.8 0.00 0.00 0.00 57 1016.2
20260510191545 25 26 3.2 11.3 0.00 0.00 0.00 61 1016.2
20260510190033 25 355 6.4 9.7 0.00 0.00 0.00 58 1016.2
20260510184530 25 159 3.2 9.7 0.00 0.00 0.00 58 1016.5
20260510183041 25 216 0.0 9.7 0.00 0.00 0.00 66 1016.6
20260510181528 25 217 4.8 8.0 0.00 0.00 0.00 67 1016.7
20260510180025 23 220 1.6 8.0 0.00 0.00 0.00 69 1016.9
20260510174520 23 341 0.0 9.7 0.00 0.00 0.00 76 1017.1
20260510173019 23 360 1.6 8.0 0.00 0.00 0.00 78 1017.4
20260510171518 23 331 3.2 8.0 0.00 0.00 0.00 77 1017.3
20260510170015 22 240 1.6 9.7 0.00 0.00 0.00 79 1017.3
20260510164514 22 243 3.2 11.3 0.00 0.00 0.00 83 1017.4
20260510163011 22 152 8.0 11.3 0.00 0.00 0.00 83 1017.4
20260510161508 21 190 4.8 11.3 0.00 0.00 0.00 84 1017.6
20260510160006 21 238 3.2 11.3 0.00 0.00 0.00 86 1017.5
20260510154503 21 284 1.6 8.0 0.00 0.00 0.00 89 1017.3
20260510153059 20 317 3.2 6.4 0.00 0.00 0.00 90 1017.2
20260510151601 18 183 4.8 8.0 0.00 0.00 0.00 94 1017.3
20260510150053 18 109 4.8 9.7 0.00 0.00 0.00 96 1017.3
20260510144552 17 119 4.8 11.3 0.00 0.00 0.00 96 1017.3
20260510143048 17 135 1.6 8.0 0.00 0.00 0.00 97 1017.2
20260510141555 17 108 4.8 9.7 0.00 0.00 0.00 97 1017.2
20260510140044 16 116 1.6 8.0 0.00 0.00 0.00 97 1017.3
20260510134542 16 240 3.2 8.0 0.00 0.00 0.00 97 1017.2
20260510133049 16 113 3.2 8.0 0.00 0.00 0.00 96 1017.1
20260510131536 16 251 0.0 3.2 0.00 0.00 0.00 97 1017.1
20260510130033 15 221 0.0 3.2 0.00 0.00 0.00 96 1017.0
20260510124531 15 281 0.0 3.2 0.00 0.00 0.00 96 1017.0
20260510123027 15 111 0.0 6.4 0.00 0.00 0.00 96 1016.6
20260510121526 14 5 1.6 6.4 0.00 0.00 0.00 96 1016.5
20260510120025 13 5 0.0 6.4 0.00 0.00 0.00 96 1016.2
20260510114523 13 9 0.0 3.2 0.00 0.00 0.00 96 1015.9
20260510113021 12 29 0.0 0.0 0.00 0.00 0.00 95 1015.7
20260510111512 12 227 0.0 0.0 0.00 0.00 0.00 95 1015.6
20260510110009 12 227 0.0 0.0 0.00 0.00 0.00 95 1015.3
20260510104508 12 227 0.0 0.0 0.00 0.00 0.00 95 1015.2
20260510103006 12 227 0.0 0.0 0.00 0.00 0.00 95 1014.8
20260510101502 12 227 0.0 0.0 0.00 0.00 0.00 95 1014.6
20260510100001 12 227 0.0 0.0 0.00 0.00 0.00 95 1014.5
20260510094601 12 227 0.0 0.0 0.00 0.00 0.00 95 1014.3
20260510093059 12 227 0.0 0.0 0.00 0.00 0.00 95 1014.4
20260510091600 12 227 0.0 0.0 0.00 0.00 0.00 95 1014.2
20260510090101 12 227 0.0 0.0 0.00 0.00 0.00 95 1014.5
20260510084558 12 227 0.0 0.0 0.00 0.00 0.00 95 1014.4
20260510083055 13 227 0.0 0.0 0.00 0.00 0.00 95 1014.1
20260510081553 13 227 0.0 0.0 0.00 0.00 0.00 95 1013.7
20260510080052 13 227 0.0 0.0 0.00 0.00 0.00 95 1013.7
20260510074548 13 227 0.0 0.0 0.00 0.00 0.00 95 1013.6
20260510073103 13 227 0.0 0.0 0.00 0.00 0.00 95 1013.6
20260510071555 13 227 0.0 0.0 0.00 0.00 0.00 95 1013.6
20260510070044 13 227 0.0 0.0 0.00 0.00 0.00 95 1013.6
20260510064550 14 227 0.0 0.0 0.00 0.00 0.00 95 1013.6
20260510063045 14 227 0.0 0.0 0.00 0.00 0.00 95 1013.7
20260510061540 14 227 0.0 0.0 0.00 0.00 0.00 95 1013.5
20260510060037 15 227 0.0 0.0 0.00 0.00 0.00 95 1013.6
20260510054536 15 227 0.0 0.0 0.00 0.00 0.00 95 1013.7
20260510053037 15 227 0.0 0.0 0.00 0.00 0.00 95 1013.7
20260510051537 15 227 0.0 0.0 0.00 0.00 0.00 95 1013.6
20260510050031 15 227 0.0 0.0 0.00 0.00 0.00 95 1013.7
20260510044543 15 227 0.0 0.0 0.00 0.00 0.00 95 1013.8
20260510043029 15 227 0.0 0.0 0.00 0.00 0.00 95 1013.9
20260510041528 16 227 0.0 0.0 0.00 0.00 0.00 95 1014.0
20260510040031 16 227 0.0 0.0 0.00 0.00 0.00 95 1014.1
20260510034534 16 227 0.0 0.0 0.00 0.00 0.00 95 1014.0
20260510033027 16 227 0.0 0.0 0.00 0.00 0.00 95 1014.0
20260510031531 16 227 0.0 0.0 0.00 0.00 0.00 95 1013.9
20260510030024 16 227 0.0 0.0 0.00 0.00 0.00 95 1013.7
20260510024523 16 227 0.0 0.0 0.00 0.00 0.00 95 1013.6
20260510023020 16 227 0.0 0.0 0.00 0.00 0.00 95 1013.4
20260510021531 16 227 0.0 0.0 0.00 0.00 0.00 94 1013.1
20260510020016 17 227 0.0 0.0 0.00 0.00 0.00 94 1012.7
20260510014513 17 227 0.0 0.0 0.00 0.00 0.00 94 1012.5
20260510013012 17 227 0.0 0.0 0.00 0.00 0.00 94 1012.1
20260510011512 17 227 0.0 0.0 0.00 0.00 0.00 93 1011.9
20260510010011 18 227 0.0 0.0 0.00 0.00 0.00 92 1011.7
20260510004511 19 227 0.0 0.0 0.00 0.00 0.00 91 1011.4
20260510003010 20 227 0.0 0.0 0.00 0.00 0.00 90 1011.1
20260510001509 20 227 0.0 0.0 0.00 0.00 0.00 89 1011.1
20260510000015 20 227 0.0 0.0 0.00 0.00 0.00 87 1011.1
20260509234509 21 227 0.0 0.0 0.00 0.00 0.00 85 1010.9
20260509233008 21 232 0.0 1.6 0.00 0.00 0.00 85 1010.8
20260509231507 21 232 0.0 1.6 0.00 0.00 0.00 82 1010.9
20260509230007 22 232 0.0 0.0 0.00 0.00 0.00 82 1010.8
20260509224507 22 232 0.0 3.2 0.00 0.00 0.00 78 1010.8
20260509223007 23 234 0.0 0.0 0.00 0.00 0.00 76 1010.8
20260509221506 23 234 0.0 3.2 0.00 0.00 0.00 67 1010.6